USA 72

导读

USA 72是美国于1991年11月8日08:00发射的军用侦察卫星,隶属于美国国家侦察局的光学成像侦察卫星体系。作为冷战时期美军太空监视网络的重要组成部分,它依托高分辨率光学载荷,承担对全球重点区域的战略成像侦察任务,为美军提供关键情报支持,标志着美国太空军事侦察能力在冷战末期的进一步升级,至今仍是美军空间态势感知体系的重要组成部分。

基本信息
目录编号:
21775
目录名称:
USA 72
国际标识:
1991-076A
轨道中心:
EARTH
卫星名称:
USA 72
卫星全名:
--
卫星状态:
在轨 (已飞行12667 天)
发射日期:
1991-11-08 UTC
国别 :
美国 (US)
星等 :
--
轨道信息
数据来源 国际轨道数据 AOE轨道数据
星历时间 2026-07-11T20:23:32+0800
2天前
查看轨道信息
2026-07-12T09:00:00+0800
2天前
查看轨道信息
半长轴 13501.357km 13501.367km
偏心率 0.333576 0.3335813
轨道倾角 63.352° 63.351°
近地点辐角 273.109° 273.110°
升交点赤经 200.330° 200.114°
平近点角 50.000° 16.569°
近地点 2619.491km 2619.426km
远地点 11626.949km 11627.034km
周期 260.211分钟 260.211分钟
每日圈数 5.533968 5.533962
详细信息
使用方式:
暂无
2D轨道图
3D轨道图
轨道高度分析图
轨道倾角分析图
轨道综合分析图
查看轨道综合分析图